Florien, LA

9:37 AM CST on February 23, 2017 (GMT -0600)
Fort Polk

Weather History for KAQV - September, 2013

Change the Weather History Date:

Sunday, September 15, 2013

  Actual Average (KIER) Record (KIER)
Temperature  
Mean Temperature 82 °F -  
Max Temperature 95 °F 88 °F 102 °F (1954)
Min Temperature 68 °F 67 °F 50 °F (1945)
Cooling Degree Days 16    
Growing Degree Days 32 (Base 50)    
Moisture  
Dew Point 62 °F    
Average Humidity 52    
Maximum Humidity 74    
Minimum Humidity 36    
Precipitation  
Precipitation 0.00 in - - ()
Sea Level Pressure  
Sea Level Pressure 29.99 in    
Wind  
Wind Speed 1 mph (NE)    
Max Wind Speed 8 mph    
Max Gust Speed -    
Visibility 10 miles    
Events      
Averages and records for this station are not official NWS values.
T = Trace of Precipitation, MM = Missing Value Source: NWS Daily Summary

Daily Weather History Graph

Daily Weather History Graph

Search for Another Location

Airport or City:

Trip Planner

Search our weather history database for the weather conditions in past years. The results will help you decide how hot, cold, wet, or windy it might be!

Date:

Astronomy

Sep. 15, 2013 Rise Set
Actual Time 6:57 AM CDT 7:18 PM CDT
Civil Twilight 6:33 AM CDT 7:42 PM CDT
Nautical Twilight 6:04 AM CDT 8:11 PM CDT
Astronomical Twilight 5:35 AM CDT 8:40 PM CDT
Moon 4:35 PM CDT (9/15) 2:49 AM CDT (9/15)
Length of Visible Light 13h 09m
Length of Day
12h 21m
Waxing Gibbous, 82% of the Moon is Illuminated
Sep 15
Waxing Gibbous
Sep 19
Full
Sep 26
Last Quarter
Oct 4
New
Oct 11
First Quarter

Hourly Weather History & Observations

Time (CDT) Temp. Heat Index Dew Point Humidity Pressure Visibility Wind Dir Wind Speed Gust Speed Precip Events Conditions
12:56 AM 73.9 °F - 57.0 °F 55% 29.97 in 10.0 mi Calm Calm - N/A   Clear
1:56 AM 70.0 °F - 57.9 °F 65% 29.97 in 10.0 mi Calm Calm - N/A   Clear
2:56 AM 72.0 °F - 55.9 °F 57% 29.96 in 10.0 mi Calm Calm - N/A   Clear
4:56 AM 70.0 °F - 54.0 °F 57% 29.97 in 10.0 mi Calm Calm - N/A   Clear
5:56 AM 69.1 °F - 55.0 °F 61% 29.98 in 10.0 mi Calm Calm - N/A   Clear
6:56 AM 68.0 °F - 54.0 °F 61% 29.99 in 10.0 mi Calm Calm - N/A   Clear
7:56 AM 71.1 °F - 55.0 °F 57% 30.00 in 10.0 mi Calm Calm - N/A   Clear
8:56 AM 75.9 °F - 59.0 °F 56% 30.01 in 10.0 mi Variable 3.5 mph - N/A   Clear
9:56 AM 82.0 °F 84.1 °F 66.0 °F 58% 30.02 in 10.0 mi Variable 3.5 mph - N/A   Clear
10:56 AM 86.0 °F 89.4 °F 68.0 °F 55% 30.03 in 10.0 mi Calm Calm - N/A   Clear
11:56 AM 90.0 °F 92.4 °F 66.0 °F 45% 30.02 in 10.0 mi Variable 4.6 mph - N/A   Clear
12:56 PM 93.0 °F 94.6 °F 64.0 °F 38% 30.00 in 10.0 mi Variable 3.5 mph - N/A   Mostly Cloudy
1:56 PM 91.9 °F 92.9 °F 63.0 °F 38% 29.99 in 10.0 mi Calm Calm - N/A   Overcast
2:56 PM 93.9 °F 95.2 °F 63.0 °F 36% 29.97 in 10.0 mi NE 8.1 mph - N/A   Mostly Cloudy
3:56 PM 93.0 °F 94.6 °F 64.0 °F 38% 29.96 in 10.0 mi Calm Calm - N/A   Overcast
4:56 PM 95.0 °F 97.0 °F 64.0 °F 36% 29.95 in 10.0 mi Calm Calm - N/A   Mostly Cloudy
5:56 PM 91.9 °F 93.3 °F 64.0 °F 39% 29.96 in 10.0 mi Calm Calm - N/A   Mostly Cloudy
6:56 PM 90.0 °F 91.3 °F 64.0 °F 42% 29.96 in 10.0 mi Calm Calm - N/A   Clear
7:56 PM 84.9 °F 86.1 °F 64.0 °F 49% 29.98 in 10.0 mi Calm Calm - N/A   Partly Cloudy
8:56 PM 82.0 °F 83.8 °F 64.9 °F 56% 29.99 in 10.0 mi Calm Calm - N/A   Mostly Cloudy
9:56 PM 81.0 °F 83.0 °F 66.0 °F 60% 30.01 in 10.0 mi Calm Calm - N/A   Partly Cloudy
10:56 PM 79.0 °F - 66.9 °F 66% 30.02 in 10.0 mi Calm Calm - N/A   Clear
11:56 PM 75.9 °F - 66.9 °F 74% 30.02 in 10.0 mi Calm Calm - N/A   Clear